Flag for Germany Weather past 2 weeks in Potsdam, Brandenburg, Germany

Now
51 °F

Fog.


Feels Like: 51 °F
Forecast: 41 / 55 °F
Wind: 1 mph from Southeast

Location: Potsdam

Current Time: Oct 23, 2014 at 8:04:19 PM

Latest Report: Oct 23, 2014 at 7:00 PM


Visibility: 4 mi

Pressure: 30.21 "Hg

Humidity: 96%

Dew point: 49 °F

Location of PotsdamLocation

Historic Weather in Potsdam — Graph

°F

Potsdam temperature yesterday

Maximum temperature yesterday: 52 °F (at 12:00 AM)
Minimum temperature yesterday: 47 °F (at 9:00 AM)
Average temperature yesterday: 49 °F

Past Weeks' High & Low Weather Summary

 TemperatureHumidityPressure
High69 °F (Oct 19, 3:00 PM)100% (Oct 17, 3:00 AM)30.23 "Hg (Oct 17, 3:00 AM)
Low47 °F (Oct 22, 9:00 AM)66% (Oct 15, 4:00 PM)29.44 "Hg (Oct 21, 10:00 PM)
Average56 °F92%29.87 "Hg
* Reported Oct 8 7:00 PM — Oct 23 7:00 PM, Potsdam, Weather by CustomWeather, © 2014

Note: Actual official high and low records may vary slightly from our data, if they occured in-between our weather recording intervals... More about our weather records

Advertising

Potsdam weather history for previous 24 hours

 ConditionsComfort  
Time TempWeatherWind HumidityBarometerVisibility
7:00 PM
Oct 23
51 °FFog.1 mph96%30.21 "Hg4 mi
6:00 PM51 °FFog.1 mph95%30.20 "Hg4 mi
5:00 PM52 °FOvercast.1 mph94%30.20 "Hg5 mi
4:00 PM53 °FOvercast.1 mph90%30.19 "Hg11 mi
3:00 PM53 °FOvercast.2 mph89%30.18 "Hg9 mi
2:00 PM54 °FLow clouds.2 mph90%30.17 "Hg5 mi
1:00 PM53 °FLow clouds.2 mph93%30.16 "Hg5 mi
12:00 PM54 °FFog.2 mph94%30.15 "Hg4 mi
11:00 AM53 °FFog.2 mph95%30.12 "Hg2 mi
10:00 AM53 °FFog.2 mph98%30.11 "Hg2 mi
9:00 AM52 °FFog.2 mph99%30.09 "Hg2 mi
8:00 AM52 °FFog.3 mph98%30.07 "Hg1 mi
7:00 AM52 °FFog.3 mph98%30.04 "Hg4 mi
6:00 AM52 °FFog.3 mph99%30.03 "Hg4 mi
5:00 AM52 °FLow clouds.3 mph98%30.01 "Hg5 mi
4:00 AM52 °FLow clouds.3 mph98%30.00 "Hg5 mi
3:00 AM51 °FLow clouds.3 mph98%29.98 "Hg6 mi
2:00 AM51 °FLow clouds.3 mph98%29.96 "Hg6 mi
1:00 AM52 °FLow clouds.3 mph98%29.95 "Hg6 mi
12:00 AM52 °FLow clouds.5 mph99%29.93 "Hg2 mi
11:00 PM
Oct 22
51 °FLow clouds.5 mph99%29.90 "Hg6 mi
10:00 PM52 °FLow clouds.5 mph99%29.88 "Hg6 mi
9:00 PM51 °FLow clouds.3 mph99%29.85 "Hg6 mi
8:00 PM50 °FLow clouds.5 mph98%29.82 "Hg9 mi
Weather by CustomWeather, © 2014

See weather overviewHow to use our weather pages